TimeCST,TemperatureF,Dew PointF,Humidity,Sea Level PressureIn,VisibilityMPH,Wind Direction,Wind SpeedMPH,Gust SpeedMPH,PrecipitationIn,Events,Conditions,WindDirDegrees,DateUTC
12:15 AM,19.4,19.4,100,30.06,5.0,Calm,Calm,-,N/A,,Clear,0,2012-11-18 06:15:00
12:35 AM,17.6,17.6,100,30.05,5.0,NW,4.6,-,N/A,,Clear,320,2012-11-18 06:35:00
12:55 AM,17.6,17.6,100,30.05,3.0,Calm,Calm,-,N/A,,Clear,0,2012-11-18 06:55:00
1:15 AM,17.6,17.6,100,30.05,3.0,Calm,Calm,-,N/A,,Clear,0,2012-11-18 07:15:00
1:35 AM,17.6,15.8,93,30.04,2.0,Calm,Calm,-,N/A,,Clear,0,2012-11-18 07:35:00
2:15 AM,15.8,15.8,100,30.04,3.0,WNW,3.5,-,N/A,,Clear,290,2012-11-18 08:15:00
2:35 AM,15.8,14.0,93,30.03,4.0,WNW,3.5,-,N/A,,Clear,290,2012-11-18 08:35:00
2:55 AM,15.8,15.8,100,30.03,4.0,West,4.6,-,N/A,,Clear,270,2012-11-18 08:55:00
3:15 AM,15.8,15.8,100,30.03,5.0,West,4.6,-,N/A,,Clear,270,2012-11-18 09:15:00
3:35 AM,15.8,15.8,100,30.02,5.0,Calm,Calm,-,N/A,,Clear,0,2012-11-18 09:35:00
3:55 AM,19.4,19.4,100,30.01,4.0,Calm,Calm,-,N/A,,Clear,0,2012-11-18 09:55:00
4:15 AM,15.8,15.8,100,30.01,5.0,Calm,Calm,-,N/A,,Clear,0,2012-11-18 10:15:00
4:35 AM,17.6,15.8,93,30.01,5.0,WNW,3.5,-,N/A,,Clear,300,2012-11-18 10:35:00
4:55 AM,17.6,17.6,100,30.01,4.0,Calm,Calm,-,N/A,,Clear,0,2012-11-18 10:55:00
5:15 AM,15.8,15.8,100,30.00,5.0,Calm,Calm,-,N/A,,Clear,0,2012-11-18 11:15:00
5:35 AM,15.8,15.8,100,30.01,4.0,Calm,Calm,-,N/A,,Clear,0,2012-11-18 11:35:00
5:55 AM,15.8,15.8,100,30.00,5.0,NW,4.6,-,N/A,,Clear,310,2012-11-18 11:55:00
6:15 AM,15.8,15.8,100,30.00,6.0,North,4.6,-,N/A,,Clear,10,2012-11-18 12:15:00
6:35 AM,17.6,15.8,93,30.00,4.0,Calm,Calm,-,N/A,,Clear,0,2012-11-18 12:35:00
6:55 AM,15.8,15.8,100,29.99,5.0,Calm,Calm,-,N/A,,Clear,0,2012-11-18 12:55:00
7:15 AM,15.8,14.0,93,29.99,4.0,Calm,Calm,-,N/A,,Clear,0,2012-11-18 13:15:00
7:35 AM,15.8,15.8,100,29.99,3.0,Calm,Calm,-,N/A,,Clear,0,2012-11-18 13:35:00
7:55 AM,15.8,15.8,100,29.99,3.0,Calm,Calm,-,N/A,,Mostly Cloudy,0,2012-11-18 13:55:00
8:15 AM,15.8,15.8,100,29.99,4.0,Calm,Calm,-,N/A,,Overcast,0,2012-11-18 14:15:00
8:35 AM,17.6,15.8,93,29.99,4.0,Calm,Calm,-,N/A,,Overcast,0,2012-11-18 14:35:00
8:55 AM,19.4,19.4,100,29.99,0.2,Calm,Calm,-,N/A,Fog,Light Freezing Fog,0,2012-11-18 14:55:00
9:15 AM,19.4,19.4,100,29.99,0.2,Calm,Calm,-,N/A,Fog,Light Freezing Fog,0,2012-11-18 15:15:00
9:35 AM,21.2,21.2,100,29.99,0.2,Calm,Calm,-,N/A,Fog,Light Freezing Fog,0,2012-11-18 15:35:00
9:55 AM,21.2,21.2,100,29.99,0.2,Calm,Calm,-,N/A,Fog,Light Freezing Fog,0,2012-11-18 15:55:00
10:15 AM,23.0,23.0,100,29.98,0.2,Calm,Calm,-,N/A,Fog,Light Freezing Fog,0,2012-11-18 16:15:00
10:35 AM,23.0,23.0,100,29.99,0.2,Calm,Calm,-,N/A,Fog,Light Freezing Fog,0,2012-11-18 16:35:00
10:55 AM,23.0,23.0,100,29.98,0.2,Calm,Calm,-,N/A,Fog,Light Freezing Fog,0,2012-11-18 16:55:00
11:15 AM,24.8,24.8,100,29.98,0.2,Calm,Calm,-,N/A,Fog,Light Freezing Fog,0,2012-11-18 17:15:00
11:35 AM,24.8,24.8,100,29.98,0.2,Calm,Calm,-,N/A,Fog,Light Freezing Fog,0,2012-11-18 17:35:00
11:55 AM,26.6,26.6,100,29.97,0.2,Calm,Calm,-,N/A,Fog,Light Freezing Fog,0,2012-11-18 17:55:00
12:15 PM,26.6,26.6,100,29.97,0.2,South,3.5,-,N/A,Fog,Light Freezing Fog,170,2012-11-18 18:15:00
12:35 PM,26.6,26.6,100,29.96,0.2,Calm,Calm,-,N/A,Fog,Light Freezing Fog,0,2012-11-18 18:35:00
12:55 PM,26.6,26.6,100,29.95,0.2,Calm,Calm,-,N/A,Fog,Light Freezing Fog,0,2012-11-18 18:55:00
1:15 PM,26.6,26.6,100,29.95,0.2,South,4.6,-,N/A,Fog,Light Freezing Fog,180,2012-11-18 19:15:00
1:35 PM,26.6,26.6,100,29.95,0.2,South,4.6,-,N/A,Fog,Light Freezing Fog,190,2012-11-18 19:35:00
1:55 PM,26.6,26.6,100,29.94,0.2,South,5.8,-,N/A,Fog,Light Freezing Fog,180,2012-11-18 19:55:00
2:15 PM,26.6,26.6,100,29.94,0.2,South,4.6,-,N/A,Fog,Light Freezing Fog,170,2012-11-18 20:15:00
2:35 PM,26.6,26.6,100,29.94,0.2,South,5.8,-,N/A,Fog,Light Freezing Fog,180,2012-11-18 20:35:00
2:55 PM,28.4,28.4,100,29.93,0.2,South,6.9,-,N/A,Fog,Light Freezing Fog,190,2012-11-18 20:55:00
3:15 PM,28.4,28.4,100,29.93,0.2,South,3.5,-,N/A,Fog,Light Freezing Fog,180,2012-11-18 21:15:00
3:35 PM,28.4,28.4,100,29.94,0.2,South,4.6,-,N/A,Fog,Light Freezing Fog,190,2012-11-18 21:35:00
3:55 PM,28.4,28.4,100,29.94,0.2,SSW,4.6,-,N/A,Fog,Light Freezing Fog,200,2012-11-18 21:55:00
4:15 PM,26.6,26.6,100,29.94,0.2,SSW,4.6,-,N/A,Fog,Light Freezing Fog,200,2012-11-18 22:15:00
4:35 PM,26.6,26.6,100,29.94,0.2,South,4.6,-,N/A,Fog,Light Freezing Fog,190,2012-11-18 22:35:00
4:55 PM,24.8,24.8,100,29.94,0.2,Calm,Calm,-,N/A,Fog,Light Freezing Fog,0,2012-11-18 22:55:00
5:15 PM,24.8,24.8,100,29.93,0.2,Calm,Calm,-,N/A,Fog,Light Freezing Fog,0,2012-11-18 23:15:00
5:35 PM,24.8,24.8,100,29.93,0.2,Calm,Calm,-,N/A,Fog,Light Freezing Fog,0,2012-11-18 23:35:00
5:55 PM,23.0,23.0,100,29.93,0.2,Calm,Calm,-,N/A,Fog,Light Freezing Fog,0,2012-11-18 23:55:00
6:15 PM,23.0,23.0,100,29.93,0.2,Calm,Calm,-,N/A,Fog,Light Freezing Fog,0,2012-11-19 00:15:00
6:35 PM,21.2,21.2,100,29.93,0.2,South,3.5,-,N/A,Fog,Light Freezing Fog,190,2012-11-19 00:35:00
6:55 PM,21.2,21.2,100,29.92,0.2,South,3.5,-,N/A,Fog,Light Freezing Fog,190,2012-11-19 00:55:00
7:15 PM,21.2,21.2,100,29.92,0.5,South,4.6,-,N/A,Fog,Light Freezing Fog,190,2012-11-19 01:15:00
7:35 PM,19.4,19.4,100,29.91,2.0,South,3.5,-,N/A,,Clear,180,2012-11-19 01:35:00
7:55 PM,21.2,21.2,100,29.91,3.0,SSW,3.5,-,N/A,,Clear,210,2012-11-19 01:55:00
8:15 PM,19.4,19.4,100,29.91,4.0,SSW,4.6,-,N/A,,Clear,200,2012-11-19 02:15:00
8:35 PM,23.0,23.0,100,29.90,2.5,SSW,4.6,-,N/A,,Clear,200,2012-11-19 02:35:00
8:55 PM,24.8,24.8,100,29.89,1.5,South,4.6,-,N/A,,Clear,180,2012-11-19 02:55:00
9:15 PM,23.0,23.0,100,29.89,2.0,Calm,Calm,-,N/A,,Clear,0,2012-11-19 03:15:00
9:35 PM,19.4,19.4,100,29.89,3.0,Calm,Calm,-,N/A,,Clear,0,2012-11-19 03:35:00
9:55 PM,23.0,23.0,100,29.89,2.5,Calm,Calm,-,N/A,,Clear,0,2012-11-19 03:55:00
10:15 PM,19.4,19.4,100,29.89,0.2,NW,3.5,-,N/A,Fog,Light Freezing Fog,310,2012-11-19 04:15:00
10:35 PM,23.0,23.0,100,29.89,0.2,Calm,Calm,-,N/A,Fog,Light Freezing Fog,0,2012-11-19 04:35:00
10:55 PM,21.2,21.2,100,29.88,2.5,Calm,Calm,-,N/A,,Scattered Clouds,0,2012-11-19 04:55:00
11:15 PM,23.0,23.0,100,29.88,0.2,Calm,Calm,-,N/A,Fog,Light Freezing Fog,0,2012-11-19 05:15:00
11:55 PM,23.0,23.0,100,29.87,0.2,South,4.6,-,N/A,Fog,Light Freezing Fog,170,2012-11-19 05:55:00